Home   Weather   Bathurst   Past weeks

Flag for Canada Past Weather in Bathurst, New Brunswick, Canada — Yesterday and Last 2 Weeks

Now
45 °F

Passing clouds.


Feels Like: 40 °F
Forecast: 24 / 46 °F
Wind: 8 mph from North

Location: Bathurst Airport

Current Time: Apr 25, 2017 at 2:03:44 pm

Latest Report: Apr 25, 2017 at 1:00 pm


Visibility: 15 mi

Pressure: 30.48 "Hg

Humidity: 25%

Dew Point: 10 °F

Location of BathurstLocation

Past Weather in Bathurst — Graph

°F

Bathurst Temperature Yesterday

Maximum temperature yesterday: 45 °F (at 4:00 pm)
Minimum temperature yesterday: 32 °F (at 10:00 pm)
Average temperature yesterday: 38 °F

High & Low Weather Summary for the Past Weeks

 TemperatureHumidityPressure
High64 °F (Apr 10, 5:00 pm)100% (Apr 11, 7:37 pm)30.66 "Hg (Apr 11, 7:37 pm)
Low19 °F (Apr 19, 4:00 am)21% (Apr 15, 12:00 pm)29.69 "Hg (Apr 16, 12:00 pm)
Average37 °F75%30.15 "Hg
* Reported Apr 10 12:00 pm — Apr 25 12:00 pm, Bathurst, Weather by CustomWeather, © 2017

Note: Actual official high and low records may vary slightly from our data, if they occured in-between our weather recording intervals... More about our weather records

Advertising

Bathurst Weather History for the Previous 24 Hours

Scroll right to see more
 ConditionsComfort  
Time TempWeatherWind HumidityBarometerVisibility
12:00 pm
Tue, Apr 25
41 °FPassing clouds.6 mph24%30.50 "Hg15 mi
11:00 am37 °FPartly sunny.5 mph30%30.51 "Hg15 mi
10:00 am34 °FPassing clouds.3 mph32%30.52 "Hg15 mi
9:00 am32 °FPassing clouds.2 mph37%30.50 "Hg15 mi
8:00 am28 °FPassing clouds.5 mph55%30.50 "Hg15 mi
7:00 am25 °FScattered clouds.3 mph63%30.47 "Hg15 mi
6:00 am27 °FClear.3 mph54%30.43 "Hg15 mi
5:00 am27 °FClear.6 mph54%30.42 "Hg15 mi
4:00 am27 °FClear.3 mph59%30.41 "Hg15 mi
3:00 am25 °FClear.5 mph69%30.40 "Hg15 mi
2:00 am25 °FClear.5 mph74%30.39 "Hg15 mi
1:00 am28 °FClear.2 mph55%30.38 "Hg15 mi
12:00 am30 °FClear.5 mph51%30.37 "Hg15 mi
11:00 pm
Mon, Apr 24
32 °FClear.3 mph47%30.34 "Hg15 mi
10:00 pm32 °FClear.3 mph44%30.30 "Hg15 mi
9:00 pm34 °FClear.2 mph38%30.27 "Hg15 mi
8:00 pm39 °FSunny.9 mph22%30.24 "Hg15 mi
7:00 pm41 °FPassing clouds.13 mph24%30.21 "Hg15 mi
6:00 pm43 °FPassing clouds.15 mph21%30.19 "Hg15 mi
5:00 pm45 °FPassing clouds.20 mph27%30.16 "Hg15 mi
4:00 pm45 °FPassing clouds.14 mph27%30.15 "Hg15 mi
3:00 pm43 °FPartly sunny.14 mph29%30.15 "Hg15 mi
2:00 pm43 °FOvercast.14 mph26%30.16 "Hg15 mi
Weather by CustomWeather, © 2017

See weather overviewHow to use our weather pages